SBI764 UIII-UUEE

Flight info

Callsign SBI764
Flight time N/A
Altitude 36000
Route BOGRA A815 TUTEK M97 LIBZI R497 RO N869 ROTLI A300 ADONI R372 NH N992 KUMEP T796 AGNOK/K0793F280 M864 KERUN P164 IDMOR M864 EKSER T612 KOKAD L158 DIMGI
Aircraft A320/M-SDE2E3FGHIRWXY/LB1

Departure

Time 2026-05-01 12:59
Airport Irkutsk International Airport (UIII)

Arrival

Time N/A
Airport Sheremetyevo International Airport (UUEE)
Time Latitude Longitude Altitude Speed Heading
2026-05-01 12:22 52.27182 104.36507 1681 ft 0 kts 202°
2026-05-01 12:53 52.27088 104.36684 1681 ft 21 kts 106°
2026-05-01 12:53 52.27037 104.36929 1681 ft 27 kts 109°
2026-05-01 12:53 52.26996 104.37289 1681 ft 33 kts 101°
2026-05-01 12:54 52.26906 104.37633 1681 ft 34 kts 114°
2026-05-01 12:54 52.26712 104.38357 1681 ft 33 kts 112°
2026-05-01 12:54 52.26624 104.38699 1681 ft 33 kts 113°
2026-05-01 12:55 52.26424 104.39453 1681 ft 38 kts 112°
2026-05-01 12:55 52.26311 104.39879 1681 ft 41 kts 112°
2026-05-01 12:55 52.26201 104.40292 1681 ft 38 kts 113°
2026-05-01 12:56 52.26098 104.40681 1681 ft 36 kts 114°
2026-05-01 12:56 52.26000 104.41051 1681 ft 31 kts 96°
2026-05-01 12:56 52.26078 104.41222 1681 ft 10 kts 23°
2026-05-01 12:56 52.26086 104.41228 1681 ft 0 kts 22°
2026-05-01 12:57 52.26143 104.41266 1681 ft 24 kts 23°
2026-05-01 12:58 52.26163 104.41515 1681 ft 25 kts 113°
2026-05-01 12:58 52.26050 104.41781 1681 ft 20 kts 92°
2026-05-01 12:58 52.26092 104.41763 1681 ft 0 kts 292°
2026-05-01 12:59 52.26266 104.41155 1681 ft 91 kts 292°
2026-05-01 12:59 52.26612 104.39868 1682 ft 153 kts 295°
2026-05-01 12:59 52.27590 104.36468 2829 ft 175 kts 297°
2026-05-01 13:00 52.28608 104.32764 4166 ft 189 kts 294°
2026-05-01 13:00 52.29111 104.30712 4603 ft 205 kts 293°
2026-05-01 13:01 52.31313 104.27441 5478 ft 240 kts 341°
2026-05-01 13:01 52.32961 104.26537 5997 ft 256 kts 340°
2026-05-01 13:01 52.36447 104.24548 7303 ft 271 kts 340°
2026-05-01 13:02 52.38232 104.23528 8074 ft 272 kts 340°
2026-05-01 13:07 52.83508 103.97103 20428 ft 366 kts 339°
2026-05-01 13:07 52.85931 103.95667 20918 ft 368 kts 339°
2026-05-01 13:07 52.88339 103.94238 21411 ft 370 kts 339°
2026-05-01 13:08 52.90755 103.92806 21902 ft 371 kts 340°
2026-05-01 13:08 52.93234 103.91336 22395 ft 373 kts 340°
2026-05-01 13:08 52.95667 103.89893 22885 ft 374 kts 340°
2026-05-01 13:08 52.98107 103.88444 23367 ft 375 kts 340°
2026-05-01 13:09 53.00576 103.86978 23842 ft 377 kts 340°
2026-05-01 13:09 53.03033 103.85518 24302 ft 378 kts 340°
2026-05-01 13:09 53.05514 103.84041 24744 ft 379 kts 340°
2026-05-01 13:09 53.08017 103.82548 25173 ft 380 kts 340°
2026-05-01 13:10 53.10527 103.81048 25598 ft 381 kts 340°
2026-05-01 13:10 53.13038 103.79543 26026 ft 382 kts 340°
2026-05-01 13:10 53.15531 103.77886 26435 ft 384 kts 337°
2026-05-01 13:10 53.17959 103.76060 26838 ft 385 kts 336°
2026-05-01 13:11 53.20389 103.74174 27232 ft 386 kts 336°
2026-05-01 13:11 53.22841 103.72259 27617 ft 386 kts 336°
2026-05-01 13:11 53.25294 103.70333 27985 ft 387 kts 336°
2026-05-01 13:11 53.27711 103.68441 28338 ft 388 kts 337°
2026-05-01 13:12 53.30203 103.66498 28685 ft 388 kts 337°
2026-05-01 13:12 53.32663 103.64585 29016 ft 389 kts 336°
2026-05-01 13:12 53.35119 103.62650 29359 ft 388 kts 336°
2026-05-01 13:12 53.37551 103.60731 29760 ft 385 kts 336°
2026-05-01 13:13 53.39972 103.58823 30157 ft 383 kts 336°
2026-05-01 13:13 53.42378 103.56904 30563 ft 381 kts 334°
2026-05-01 13:13 53.44645 103.54572 30954 ft 382 kts 328°
2026-05-01 13:13 53.46715 103.51755 31364 ft 383 kts 322°
2026-05-01 13:14 53.48579 103.48488 31774 ft 385 kts 316°
2026-05-01 13:14 53.50182 103.44849 32177 ft 388 kts 310°
2026-05-01 13:14 53.51498 103.40909 32514 ft 392 kts 304°
2026-05-01 13:14 53.52541 103.36583 32799 ft 399 kts 297°
2026-05-01 13:15 53.53274 103.32052 33055 ft 404 kts 292°
2026-05-01 13:15 53.53924 103.27445 33319 ft 405 kts 292°
2026-05-01 13:15 53.54555 103.22832 33569 ft 404 kts 292°
2026-05-01 13:15 53.55184 103.18171 33814 ft 404 kts 292°
2026-05-01 13:16 53.55808 103.13519 34050 ft 404 kts 291°
2026-05-01 13:16 53.56422 103.08913 34278 ft 404 kts 291°
2026-05-01 13:16 53.57033 103.04321 34477 ft 404 kts 291°
2026-05-01 13:17 53.58880 102.90331 34988 ft 406 kts 291°
2026-05-01 13:17 53.59486 102.85702 35144 ft 406 kts 291°
2026-05-01 13:18 53.60703 102.76374 35436 ft 407 kts 291°
2026-05-01 13:18 53.61309 102.71706 35564 ft 408 kts 291°
2026-05-01 13:18 53.62532 102.62244 35737 ft 409 kts 291°
2026-05-01 13:19 53.63747 102.52781 35877 ft 411 kts 291°
2026-05-01 13:19 53.64954 102.43301 36012 ft 412 kts 291°
2026-05-01 13:20 53.65562 102.38506 36088 ft 412 kts 291°
2026-05-01 13:20 53.66755 102.29027 36120 ft 413 kts 290°
2026-05-01 13:21 53.68537 102.14732 36125 ft 414 kts 290°
2026-05-01 13:21 53.69711 102.05215 36128 ft 414 kts 290°
2026-05-01 13:22 53.70882 101.95657 36130 ft 414 kts 290°
2026-05-01 13:22 53.72042 101.86126 36131 ft 413 kts 290°
2026-05-01 13:23 53.73198 101.76569 36130 ft 413 kts 290°
2026-05-01 13:23 53.74343 101.67024 36128 ft 413 kts 290°
2026-05-01 13:24 53.75485 101.57449 36127 ft 413 kts 290°
2026-05-01 13:25 53.77187 101.43036 36129 ft 413 kts 290°
2026-05-01 13:25 53.78308 101.33463 36131 ft 414 kts 289°
2026-05-01 13:26 53.79424 101.23861 36131 ft 414 kts 289°
2026-05-01 13:26 53.80535 101.14232 36133 ft 415 kts 289°
2026-05-01 13:27 53.81629 101.04676 36134 ft 415 kts 289°
2026-05-01 13:27 53.83270 100.90192 36135 ft 414 kts 289°
2026-05-01 13:28 53.84890 100.75731 36136 ft 413 kts 289°
2026-05-01 13:29 53.87013 100.56543 36137 ft 413 kts 289°
2026-05-01 13:31 53.90141 100.27705 36187 ft 412 kts 288°
2026-05-01 13:31 53.91676 100.13306 36479 ft 410 kts 288°
2026-05-01 13:32 53.92685 100.03754 36626 ft 410 kts 288°
2026-05-01 13:33 53.94187 99.89391 36806 ft 411 kts 288°
2026-05-01 13:33 53.95181 99.79788 36916 ft 411 kts 288°
2026-05-01 13:34 53.96167 99.70171 37028 ft 411 kts 288°
2026-05-01 13:34 53.97150 99.60510 37133 ft 411 kts 288°
2026-05-01 13:35 53.98114 99.50942 37339 ft 408 kts 288°
2026-05-01 13:35 53.98596 99.46134 37470 ft 407 kts 288°
2026-05-01 13:35 53.99542 99.36667 37728 ft 405 kts 288°
2026-05-01 13:36 54.00006 99.31947 37879 ft 403 kts 287°
2026-05-01 13:36 54.00470 99.27235 38081 ft 399 kts 287°
2026-05-01 13:36 54.01388 99.17873 38157 ft 402 kts 287°
2026-05-01 13:37 54.02315 99.08351 38094 ft 408 kts 286°
2026-05-01 13:37 54.03265 98.98692 37962 ft 413 kts 288°
2026-05-01 13:38 54.05482 98.84668 37990 ft 405 kts 296°
2026-05-01 13:39 54.07610 98.75830 38092 ft 400 kts 301°
2026-05-01 13:39 54.10211 98.67438 38159 ft 397 kts 304°
2026-05-01 13:40 54.12951 98.59238 38160 ft 397 kts 305°
2026-05-01 13:40 54.15694 98.51022 38130 ft 397 kts 305°
2026-05-01 13:41 54.18432 98.42799 38092 ft 397 kts 305°
2026-05-01 13:41 54.21164 98.34565 38060 ft 396 kts 304°
2026-05-01 13:42 54.23894 98.26305 38061 ft 396 kts 304°
2026-05-01 13:42 54.26622 98.18030 38078 ft 396 kts 304°
2026-05-01 13:43 54.29360 98.09695 38067 ft 397 kts 304°
2026-05-01 13:43 54.32075 98.01397 38044 ft 397 kts 304°
2026-05-01 13:44 54.34779 97.93107 38043 ft 397 kts 304°
2026-05-01 13:44 54.37492 97.84785 38082 ft 396 kts 304°
2026-05-01 13:45 54.40205 97.76442 38122 ft 396 kts 304°
2026-05-01 13:45 54.42902 97.68115 38134 ft 396 kts 304°
2026-05-01 13:46 54.45567 97.59864 38134 ft 396 kts 304°
2026-05-01 13:46 54.48247 97.51535 38131 ft 396 kts 304°
2026-05-01 13:47 54.50901 97.43259 38131 ft 396 kts 304°
2026-05-01 13:47 54.53569 97.34913 38134 ft 396 kts 303°
2026-05-01 13:48 54.56238 97.26532 38138 ft 396 kts 303°
2026-05-01 13:48 54.58884 97.18195 38142 ft 395 kts 303°
2026-05-01 13:49 54.61522 97.09856 38145 ft 395 kts 303°
2026-05-01 13:49 54.64166 97.01470 38147 ft 395 kts 303°
2026-05-01 13:50 54.66801 96.93086 38147 ft 394 kts 303°
2026-05-01 13:50 54.69421 96.84719 38148 ft 394 kts 303°
2026-05-01 13:51 54.72044 96.76313 38142 ft 395 kts 303°
2026-05-01 13:51 54.74630 96.67994 38125 ft 395 kts 303°
2026-05-01 13:52 54.77190 96.59515 38144 ft 395 kts 302°
2026-05-01 13:52 54.79713 96.50996 38140 ft 395 kts 302°
2026-05-01 13:53 54.82241 96.42445 38129 ft 394 kts 302°
2026-05-01 13:53 54.86002 96.29675 38120 ft 394 kts 302°
2026-05-01 13:54 54.88513 96.21122 38116 ft 394 kts 302°
2026-05-01 13:54 54.91034 96.12498 38115 ft 394 kts 302°
2026-05-01 13:55 54.93516 96.03983 38115 ft 394 kts 302°
2026-05-01 13:55 54.96013 95.95382 38116 ft 394 kts 302°
2026-05-01 13:56 54.98494 95.86807 38126 ft 394 kts 302°
2026-05-01 13:56 55.00952 95.78279 38124 ft 394 kts 302°
2026-05-01 13:57 55.02915 95.71445 38108 ft 394 kts 302°
2026-05-01 13:57 55.05783 95.61428 38099 ft 393 kts 302°
2026-05-01 13:58 55.08255 95.52756 38099 ft 393 kts 302°
2026-05-01 13:58 55.10704 95.44137 38101 ft 393 kts 301°
2026-05-01 13:59 55.13140 95.35533 38102 ft 393 kts 301°
2026-05-01 13:59 55.15579 95.26881 38104 ft 393 kts 301°
2026-05-01 14:00 55.18010 95.18229 38104 ft 393 kts 301°
2026-05-01 14:00 55.20439 95.09551 38103 ft 393 kts 301°
2026-05-01 14:01 55.22858 95.00875 38103 ft 394 kts 301°
2026-05-01 14:01 55.25281 94.92143 38103 ft 394 kts 301°
2026-05-01 14:02 55.27660 94.83350 38104 ft 395 kts 299°
2026-05-01 14:02 55.29908 94.74526 38105 ft 395 kts 299°
2026-05-01 14:03 55.32167 94.65635 38106 ft 395 kts 299°
2026-05-01 14:03 55.34440 94.56680 38106 ft 395 kts 299°
2026-05-01 14:04 55.36691 94.47791 38107 ft 394 kts 299°
2026-05-01 14:04 55.38562 94.40374 38107 ft 395 kts 299°
2026-05-01 14:05 55.41164 94.30016 38110 ft 396 kts 298°
2026-05-01 14:05 55.43398 94.21091 38111 ft 395 kts 298°
2026-05-01 14:06 55.45633 94.12125 38112 ft 395 kts 298°
2026-05-01 14:06 55.47857 94.03166 38112 ft 395 kts 298°
2026-05-01 14:07 55.50075 93.94196 38112 ft 395 kts 298°
2026-05-01 14:08 55.53370 93.80804 38114 ft 394 kts 298°
2026-05-01 14:08 55.55551 93.71889 38115 ft 394 kts 297°
2026-05-01 14:09 55.57749 93.62872 38117 ft 395 kts 297°
2026-05-01 14:09 55.59939 93.53846 38119 ft 395 kts 297°
2026-05-01 14:10 55.62097 93.44917 38119 ft 395 kts 297°
2026-05-01 14:10 55.64281 93.35841 38117 ft 395 kts 297°
2026-05-01 14:11 55.66430 93.26873 38113 ft 395 kts 297°
2026-05-01 14:11 55.69672 93.13284 38111 ft 396 kts 297°
2026-05-01 14:12 55.71820 93.04227 38115 ft 396 kts 297°
2026-05-01 14:12 55.73962 92.95164 38121 ft 397 kts 297°
2026-05-01 14:13 55.75755 92.87543 38119 ft 397 kts 297°
2026-05-01 14:13 55.78251 92.76894 38111 ft 397 kts 297°
2026-05-01 14:14 55.80372 92.67802 38107 ft 396 kts 297°
2026-05-01 14:14 55.82500 92.58637 38108 ft 396 kts 297°
2026-05-01 14:15 55.84601 92.49553 38112 ft 396 kts 297°
2026-05-01 14:15 55.86749 92.40430 38116 ft 396 kts 297°
2026-05-01 14:16 55.88885 92.31348 38119 ft 396 kts 296°
2026-05-01 14:16 55.91020 92.22227 38119 ft 395 kts 296°
2026-05-01 14:17 55.93147 92.13096 38120 ft 395 kts 296°
2026-05-01 14:17 55.95262 92.03973 38119 ft 394 kts 296°
2026-05-01 14:18 55.97351 91.94926 38118 ft 394 kts 296°
2026-05-01 14:18 55.99094 91.87344 38117 ft 394 kts 296°
2026-05-01 14:19 56.01539 91.76670 38114 ft 394 kts 296°
2026-05-01 14:19 56.03612 91.67575 38111 ft 394 kts 296°
2026-05-01 14:20 56.06730 91.53825 38104 ft 394 kts 296°
2026-05-01 14:21 56.08799 91.44647 38101 ft 393 kts 296°
2026-05-01 14:21 56.10842 91.35544 38101 ft 393 kts 296°
2026-05-01 14:22 56.13923 91.21744 38099 ft 394 kts 295°
2026-05-01 14:22 56.15955 91.12597 38097 ft 394 kts 295°
2026-05-01 14:23 56.17995 91.03373 38096 ft 393 kts 295°
2026-05-01 14:23 56.20017 90.94183 38095 ft 393 kts 295°
2026-05-01 14:24 56.22033 90.84981 38093 ft 394 kts 295°
2026-05-01 14:24 56.24040 90.75771 38092 ft 394 kts 294°
2026-05-01 14:25 56.25802 90.66301 38091 ft 397 kts 289°
2026-05-01 14:25 56.27030 90.56571 38090 ft 400 kts 284°
2026-05-01 14:26 56.27932 90.41479 38088 ft 404 kts 279°
2026-05-01 14:27 56.28330 90.31267 38087 ft 405 kts 278°
2026-05-01 14:27 56.28711 90.21143 38085 ft 405 kts 278°
2026-05-01 14:28 56.29270 90.05825 38084 ft 406 kts 278°
2026-05-01 14:28 56.29633 89.95574 38082 ft 407 kts 278°
2026-05-01 14:29 56.29985 89.85374 38081 ft 406 kts 278°
2026-05-01 14:30 56.30667 89.64960 38075 ft 407 kts 278°
2026-05-01 14:31 56.31155 89.49660 38070 ft 407 kts 278°
2026-05-01 14:31 56.31470 89.39461 38064 ft 406 kts 278°
2026-05-01 14:32 56.31777 89.29216 38059 ft 406 kts 277°
2026-05-01 14:32 56.32075 89.19035 38057 ft 406 kts 277°
2026-05-01 14:33 56.32363 89.08814 38056 ft 406 kts 277°
2026-05-01 14:33 56.32805 88.98629 38055 ft 403 kts 281°
2026-05-01 14:34 56.33585 88.90167 38054 ft 401 kts 285°
2026-05-01 14:34 56.34984 88.80451 38053 ft 400 kts 290°
2026-05-01 14:35 56.36867 88.70946 38053 ft 399 kts 292°
2026-05-01 14:35 56.38860 88.61505 38052 ft 399 kts 292°
2026-05-01 14:36 56.40852 88.52046 38052 ft 400 kts 292°
2026-05-01 14:36 56.42836 88.42587 38051 ft 400 kts 292°
2026-05-01 14:37 56.44826 88.33058 38052 ft 401 kts 292°
2026-05-01 14:37 56.46791 88.23604 38051 ft 401 kts 291°
2026-05-01 14:38 56.48759 88.14095 38057 ft 402 kts 291°
2026-05-01 14:38 56.50729 88.04530 38067 ft 402 kts 291°
2026-05-01 14:39 56.52684 87.94988 38073 ft 402 kts 291°
2026-05-01 14:39 56.54638 87.85411 38073 ft 402 kts 291°
2026-05-01 14:40 56.56575 87.75872 38070 ft 402 kts 291°
2026-05-01 14:40 56.58511 87.66288 38069 ft 402 kts 291°
2026-05-01 14:41 56.60442 87.56686 38070 ft 402 kts 291°
2026-05-01 14:41 56.62369 87.47054 38070 ft 402 kts 291°
2026-05-01 14:42 56.64289 87.37409 38069 ft 402 kts 291°
2026-05-01 14:42 56.66190 87.27814 38069 ft 402 kts 290°
2026-05-01 14:43 56.68085 87.18205 38068 ft 402 kts 290°
2026-05-01 14:43 56.69976 87.08568 38066 ft 402 kts 290°
2026-05-01 14:44 56.71863 86.98904 38064 ft 402 kts 290°
2026-05-01 14:44 56.74681 86.84380 38063 ft 403 kts 290°
2026-05-01 14:45 56.77464 86.69928 38064 ft 403 kts 290°
2026-05-01 14:46 56.79316 86.60247 38062 ft 403 kts 290°
2026-05-01 14:46 56.82090 86.45665 38052 ft 403 kts 290°
2026-05-01 14:47 56.83918 86.35991 38035 ft 403 kts 290°
2026-05-01 14:48 56.86661 86.21385 38018 ft 404 kts 289°
2026-05-01 14:48 56.89402 86.06667 38017 ft 403 kts 289°
2026-05-01 14:49 56.93036 85.86978 38018 ft 404 kts 289°
2026-05-01 14:50 56.96632 85.67283 38025 ft 405 kts 288°
2026-05-01 14:51 56.99316 85.52450 38025 ft 405 kts 288°
2026-05-01 14:52 57.01963 85.37703 38022 ft 405 kts 288°
2026-05-01 14:53 57.04607 85.22850 38020 ft 405 kts 288°
2026-05-01 14:53 57.06358 85.12952 38020 ft 405 kts 288°
2026-05-01 14:54 57.08114 85.02972 38017 ft 405 kts 287°
2026-05-01 14:54 57.09845 84.93078 38014 ft 405 kts 287°
2026-05-01 14:55 57.11571 84.83148 38013 ft 405 kts 287°
2026-05-01 14:55 57.13263 84.73167 38011 ft 405 kts 285°
2026-05-01 14:56 57.14703 84.63045 38011 ft 405 kts 284°
2026-05-01 14:56 57.16105 84.52969 38009 ft 404 kts 284°
2026-05-01 14:57 57.17500 84.42876 38008 ft 404 kts 284°
2026-05-01 14:57 57.19574 84.27756 38007 ft 404 kts 283°
2026-05-01 14:58 57.20951 84.17641 38006 ft 404 kts 283°
2026-05-01 14:58 57.22309 84.07604 38006 ft 403 kts 283°
2026-05-01 14:59 57.23663 83.97523 38004 ft 403 kts 283°
2026-05-01 14:59 57.25019 83.87357 38000 ft 403 kts 283°
2026-05-01 15:00 57.27020 83.72241 38002 ft 403 kts 283°
2026-05-01 15:01 57.28350 83.62104 38005 ft 403 kts 283°
2026-05-01 15:01 57.29669 83.51979 38006 ft 403 kts 283°
2026-05-01 15:02 57.30974 83.41888 38005 ft 403 kts 283°
2026-05-01 15:02 57.32279 83.31728 38004 ft 403 kts 282°
2026-05-01 15:03 57.33571 83.21603 38002 ft 403 kts 282°
2026-05-01 15:03 57.34865 83.11391 37999 ft 403 kts 282°
2026-05-01 15:04 57.36137 83.01276 37997 ft 404 kts 282°
2026-05-01 15:04 57.37419 82.91029 37995 ft 405 kts 282°
2026-05-01 15:05 57.38689 82.80817 37995 ft 405 kts 282°
2026-05-01 15:05 57.39948 82.70609 37994 ft 405 kts 282°
2026-05-01 15:06 57.41205 82.60325 37993 ft 405 kts 282°
2026-05-01 15:06 57.42444 82.50113 37988 ft 405 kts 282°
2026-05-01 15:07 57.43679 82.39861 37974 ft 405 kts 282°
2026-05-01 15:07 57.44901 82.29639 37961 ft 404 kts 281°
2026-05-01 15:08 57.46117 82.19390 37954 ft 404 kts 281°
2026-05-01 15:08 57.47320 82.09180 37953 ft 404 kts 281°
2026-05-01 15:09 57.48518 81.98922 37950 ft 403 kts 281°
2026-05-01 15:09 57.49700 81.88743 37947 ft 403 kts 281°
2026-05-01 15:10 57.50879 81.78507 37947 ft 403 kts 280°
2026-05-01 15:10 57.52626 81.63175 37954 ft 403 kts 280°
2026-05-01 15:11 57.54361 81.47778 37955 ft 403 kts 280°
2026-05-01 15:12 57.55506 81.37518 37955 ft 404 kts 280°
2026-05-01 15:12 57.57202 81.22156 37954 ft 404 kts 279°
2026-05-01 15:14 57.60013 80.96319 37952 ft 405 kts 279°
2026-05-01 15:14 57.61671 80.80813 37951 ft 406 kts 279°
2026-05-01 15:15 57.63869 80.59952 37951 ft 406 kts 279°
2026-05-01 15:16 57.66039 80.39114 37950 ft 406 kts 279°
2026-05-01 15:18 57.68708 80.13130 37949 ft 404 kts 278°
2026-05-01 15:19 57.70802 79.92339 37947 ft 405 kts 278°
2026-05-01 15:19 57.72345 79.76775 37946 ft 405 kts 278°
2026-05-01 15:20 57.73669 79.61140 37948 ft 404 kts 276°
2026-05-01 15:21 57.74466 79.50679 37948 ft 404 kts 276°
2026-05-01 15:21 57.75256 79.40198 37948 ft 405 kts 276°
2026-05-01 15:22 57.76424 79.24480 37948 ft 405 kts 275°
2026-05-01 15:22 57.77197 79.13957 37947 ft 406 kts 275°
2026-05-01 15:23 57.77961 79.03419 37940 ft 407 kts 275°
2026-05-01 15:23 57.78720 78.92828 37934 ft 410 kts 274°
2026-05-01 15:24 57.79476 78.82124 37939 ft 413 kts 274°
2026-05-01 15:24 57.80223 78.71432 37942 ft 413 kts 274°
2026-05-01 15:25 57.80962 78.60716 37943 ft 413 kts 274°
2026-05-01 15:25 57.81696 78.49927 37943 ft 413 kts 274°
2026-05-01 15:26 57.82416 78.39178 37942 ft 413 kts 274°
2026-05-01 15:26 57.83128 78.28426 37943 ft 412 kts 272°
2026-05-01 15:27 57.83828 78.17733 37936 ft 411 kts 272°
2026-05-01 15:28 57.84863 78.01633 37899 ft 411 kts 272°
2026-05-01 15:28 57.85539 77.90945 37885 ft 410 kts 272°
2026-05-01 15:29 57.86536 77.74908 37878 ft 410 kts 272°
2026-05-01 15:30 57.87835 77.53508 37873 ft 410 kts 272°
2026-05-01 15:31 57.89716 77.21351 37864 ft 412 kts 271°
2026-05-01 15:32 57.90933 76.99761 37857 ft 414 kts 271°
2026-05-01 15:34 57.92694 76.67286 37835 ft 417 kts 271°